| time (UTC) | temp F | wind direction | speed knots | gust knots | rain 1hr in | rain 24hr in | rain mn in | humidity % | barometer mb |
| 20260505200101 | 55 | 299 | 6.1 | 10.4 | 0.00 | 0.00 | 0.00 | 64 | 1013.1 |
| 20260505194548 | 55 | 329 | 4.3 | 10.4 | 0.00 | 0.00 | 0.00 | 64 | 1012.9 |
| 20260505193040 | 55 | 300 | 3.5 | 10.4 | 0.00 | 0.00 | 0.00 | 63 | 1012.8 |
| 20260505191536 | 56 | 307 | 4.3 | 8.7 | 0.00 | 0.00 | 0.00 | 64 | 1012.7 |
| 20260505190005 | 56 | 310 | 3.5 | 8.7 | 0.00 | 0.00 | 0.00 | 63 | 1012.7 |
| 20260505184508 | 56 | 21 | 4.3 | 7.8 | 0.00 | 0.00 | 0.00 | 63 | 1012.7 |
| 20260505183102 | 56 | 298 | 3.5 | 9.6 | 0.00 | 0.00 | 0.00 | 62 | 1012.6 |
| 20260505181556 | 57 | 313 | 3.5 | 10.4 | 0.00 | 0.00 | 0.00 | 63 | 1012.6 |
| 20260505180035 | 57 | 285 | 5.2 | 9.6 | 0.00 | 0.00 | 0.00 | 63 | 1012.7 |
| 20260505174536 | 57 | 338 | 2.6 | 10.4 | 0.00 | 0.00 | 0.00 | 62 | 1012.6 |
| 20260505173022 | 57 | 275 | 3.5 | 9.6 | 0.00 | 0.00 | 0.00 | 62 | 1012.6 |
| 20260505171528 | 58 | 321 | 4.3 | 9.6 | 0.00 | 0.00 | 0.00 | 62 | 1012.7 |
| 20260505170105 | 58 | 297 | 2.6 | 9.6 | 0.00 | 0.00 | 0.00 | 61 | 1012.7 |
| 20260505164632 | 58 | 320 | 2.6 | 8.7 | 0.00 | 0.00 | 0.00 | 61 | 1012.8 |
| 20260505163051 | 58 | 309 | 2.6 | 7.0 | 0.00 | 0.00 | 0.00 | 61 | 1012.7 |
| 20260505161545 | 58 | 306 | 3.5 | 8.7 | 0.00 | 0.00 | 0.00 | 61 | 1012.7 |
| 20260505153006 | 59 | 1 | 5.2 | 13.9 | 0.00 | 0.00 | 0.00 | 62 | 1013.0 |
| 20260505151611 | 59 | 17 | 5.2 | 10.4 | 0.00 | 0.00 | 0.00 | 62 | 1013.1 |
| 20260505124517 | 59 | 293 | 2.6 | 11.3 | 0.00 | 0.00 | 0.00 | 60 | 1013.2 |
| 20260505123001 | 59 | 342 | 3.5 | 16.5 | 0.00 | 0.00 | 0.00 | 61 | 1013.3 |
| 20260505121503 | 59 | 333 | 5.2 | 13.0 | 0.00 | 0.00 | 0.00 | 61 | 1013.3 |
| 20260505120047 | 59 | 352 | 7.0 | 13.0 | 0.00 | 0.00 | 0.00 | 64 | 1013.3 |
| 20260505114533 | 58 | 318 | 6.1 | 13.0 | 0.00 | 0.00 | 0.00 | 64 | 1013.3 |
| 20260505113033 | 58 | 356 | 3.5 | 9.6 | 0.00 | 0.00 | 0.00 | 66 | 1013.4 |
| 20260505111517 | 57 | 23 | 5.2 | 10.4 | 0.00 | 0.00 | 0.00 | 65 | 1013.4 |
| 20260505110109 | 57 | 316 | 1.7 | 10.4 | 0.00 | 0.00 | 0.00 | 67 | 1013.4 |
| 20260505101545 | 55 | 13 | 4.3 | 13.0 | 0.00 | 0.00 | 0.00 | 71 | 1013.7 |
| 20260505100005 | 54 | 309 | 6.1 | 12.2 | 0.00 | 0.00 | 0.00 | 74 | 1013.8 |
| 20260505094503 | 53 | 285 | 3.5 | 11.3 | 0.00 | 0.00 | 0.00 | 74 | 1013.9 |
| 20260505093055 | 52 | 353 | 7.0 | 13.9 | 0.00 | 0.00 | 0.00 | 75 | 1013.9 |
| 20260505091606 | 51 | 316 | 4.3 | 10.4 | 0.00 | 0.00 | 0.00 | 76 | 1013.9 |
| 20260505090031 | 51 | 23 | 5.2 | 13.0 | 0.00 | 0.00 | 0.00 | 76 | 1013.8 |
| 20260505084531 | 50 | 11 | 4.3 | 11.3 | 0.00 | 0.00 | 0.00 | 77 | 1013.9 |
| 20260505083002 | 49 | 314 | 2.6 | 7.0 | 0.00 | 0.00 | 0.00 | 76 | 1013.9 |
| 20260505081503 | 49 | 296 | 2.6 | 11.3 | 0.00 | 0.00 | 0.00 | 75 | 1014.0 |
| 20260505080052 | 49 | 311 | 5.2 | 12.2 | 0.00 | 0.00 | 0.00 | 75 | 1014.0 |
| 20260505074543 | 48 | 338 | 3.5 | 11.3 | 0.00 | 0.00 | 0.00 | 75 | 1014.0 |
| 20260505073038 | 48 | 288 | 4.3 | 8.7 | 0.00 | 0.00 | 0.00 | 75 | 1014.0 |
| 20260505071530 | 48 | 302 | 3.5 | 11.3 | 0.00 | 0.00 | 0.00 | 75 | 1014.1 |
| 20260505070100 | 48 | 303 | 5.2 | 10.4 | 0.00 | 0.00 | 0.00 | 76 | 1014.1 |
| 20260505064606 | 48 | 305 | 3.5 | 9.6 | 0.00 | 0.00 | 0.00 | 76 | 1014.3 |
| 20260505063112 | 48 | 291 | 3.5 | 8.7 | 0.00 | 0.00 | 0.00 | 76 | 1014.2 |
| 20260505061557 | 48 | 359 | 3.5 | 8.7 | 0.00 | 0.00 | 0.00 | 76 | 1014.2 |
| 20260505060033 | 48 | 318 | 4.3 | 8.7 | 0.00 | 0.00 | 0.00 | 76 | 1014.3 |
| 20260505054539 | 48 | 304 | 3.5 | 7.8 | 0.00 | 0.00 | 0.00 | 76 | 1014.3 |
| 20260505053034 | 48 | 290 | 1.7 | 7.0 | 0.00 | 0.00 | 0.00 | 76 | 1014.3 |
| 20260505051524 | 49 | 335 | 2.6 | 7.0 | 0.00 | 0.00 | 0.00 | 76 | 1014.3 |
| 20260505041558 | 49 | 307 | 3.5 | 8.7 | 0.00 | 0.00 | 0.00 | 76 | 1013.9 |
| 20260505040036 | 49 | 338 | 2.6 | 8.7 | 0.00 | 0.00 | 0.00 | 76 | 1013.8 |
| 20260505034527 | 49 | 311 | 2.6 | 9.6 | 0.00 | 0.00 | 0.00 | 76 | 1013.9 |
| 20260505033019 | 49 | 349 | 3.5 | 8.7 | 0.00 | 0.00 | 0.00 | 77 | 1014.0 |
| 20260505031608 | 50 | 331 | 3.5 | 7.8 | 0.00 | 0.00 | 0.00 | 77 | 1014.1 |
| 20260505030034 | 50 | 307 | 4.3 | 7.0 | 0.00 | 0.00 | 0.00 | 77 | 1014.2 |
| 20260505024538 | 50 | 312 | 3.5 | 6.1 | 0.00 | 0.00 | 0.00 | 77 | 1014.2 |
| 20260505023024 | 50 | 334 | 2.6 | 7.8 | 0.00 | 0.00 | 0.00 | 77 | 1014.2 |
| 20260505021521 | 50 | 335 | 2.6 | 7.0 | 0.00 | 0.00 | 0.00 | 77 | 1014.3 |
| 20260505020042 | 50 | 335 | 3.5 | 7.8 | 0.00 | 0.00 | 0.00 | 77 | 1014.3 |
| 20260505014555 | 50 | 328 | 2.6 | 5.2 | 0.00 | 0.00 | 0.00 | 77 | 1014.3 |
| 20260505013020 | 50 | 4 | 3.5 | 7.0 | 0.00 | 0.00 | 0.00 | 77 | 1014.5 |
| 20260505011515 | 51 | 360 | 4.3 | 7.0 | 0.00 | 0.00 | 0.00 | 76 | 1014.5 |
| 20260505010039 | 51 | 321 | 2.6 | 6.1 | 0.00 | 0.00 | 0.00 | 77 | 1014.6 |
| 20260505004537 | 51 | 329 | 3.5 | 6.1 | 0.00 | 0.00 | 0.00 | 77 | 1014.7 |
| 20260505003016 | 51 | 298 | 3.5 | 5.2 | 0.00 | 0.00 | 0.00 | 77 | 1014.7 |
| 20260505001509 | 51 | 311 | 2.6 | 6.1 | 0.00 | 0.00 | 0.00 | 77 | 1014.9 |
| 20260505000050 | 51 | 301 | 1.7 | 4.3 | 0.00 | 0.00 | 0.00 | 77 | 1014.9 |
| 20260504234533 | 51 | 359 | 2.6 | 4.3 | 0.00 | 0.00 | 0.00 | 77 | 1015.0 |
| 20260504233006 | 51 | 9 | 3.5 | 5.2 | 0.00 | 0.00 | 0.00 | 78 | 1014.8 |
| 20260504231502 | 51 | 6 | 2.6 | 4.3 | 0.00 | 0.00 | 0.00 | 78 | 1014.8 |
| 20260504230042 | 51 | 16 | 2.6 | 5.2 | 0.00 | 0.00 | 0.00 | 78 | 1014.9 |
| 20260504224521 | 51 | 25 | 4.3 | 7.0 | 0.00 | 0.00 | 0.00 | 78 | 1014.9 |
| 20260504223027 | 51 | 8 | 3.5 | 6.1 | 0.00 | 0.00 | 0.00 | 78 | 1015.0 |
| 20260504221516 | 52 | 48 | 3.5 | 7.0 | 0.00 | 0.00 | 0.00 | 77 | 1014.9 |
| 20260504220046 | 52 | 23 | 3.5 | 6.1 | 0.00 | 0.00 | 0.00 | 77 | 1015.0 |
| 20260504214543 | 52 | 27 | 3.5 | 6.1 | 0.00 | 0.00 | 0.00 | 77 | 1015.0 |
| 20260504213049 | 52 | 15 | 2.6 | 7.8 | 0.00 | 0.00 | 0.00 | 77 | 1015.2 |
| 20260504211534 | 52 | 13 | 3.5 | 8.7 | 0.00 | 0.00 | 0.00 | 77 | 1015.1 |
| 20260504210002 | 53 | 27 | 5.2 | 8.7 | 0.00 | 0.00 | 0.00 | 77 | 1015.1 |
| 20260504204512 | 53 | 37 | 4.3 | 9.6 | 0.00 | 0.00 | 0.00 | 76 | 1015.1 |
| 20260504203109 | 53 | 55 | 4.3 | 8.7 | 0.00 | 0.00 | 0.00 | 76 | 1015.0 |
| 20260504201600 | 54 | 38 | 4.3 | 8.7 | 0.00 | 0.00 | 0.00 | 76 | 1015.0 |